Kenneth Carl — WDF8246 — position and weather

sailwx.info

Track history (hours):
 
Tides and Currents Weather Stations Pressure Air Temp Water Temp Dewpoint Dewpoint Depression Visibility Wind Speed Wind Dir Waves Ship Positions

Kenneth Carl

Owner: So. Cal. Ship Services, Inc., San Pedro, CA. More information available from US FCC via Universal Licensing System and Coast Guard Vessel Documentation Center.

Last reported at 2014-Nov-23 05:32 UTC. Time now 2014-Nov-23 05:58 UTC.
Position N 33°35' W 118°08'.

Length 31 m; draft 3 m.

Type: Ship. MMSI: 367492920.

Date/timePositionNaut miles runAvg speedWind from/ knotsBaromVisibWave heightAir tempDewpointWater temp
2014-Nov-23 05:32N 33°35' W 118°08'9 7.5
2014-Nov-23 04:21N 33°42' W 118°14'3 3.2
2014-Nov-23 03:32N 33°44' W 118°16'0 0.0
2014-Nov-23 02:32N 33°44' W 118°16'0 0.0
2014-Nov-23 01:33N 33°44' W 118°16'6 6.5
2014-Nov-23 00:33N 33°39' W 118°11'5 5.1
2014-Nov-22 23:33N 33°35' W 118°08'0 0.1
2014-Nov-22 22:33N 33°35' W 118°08'0 0.0
2014-Nov-22 21:33N 33°35' W 118°08'0 0.1
2014-Nov-22 20:33N 33°35' W 118°08'0 0.0
2014-Nov-22 19:33N 33°35' W 118°08'0 0.0
2014-Nov-22 18:26N 33°35' W 118°08'0 0.0
2014-Nov-22 13:27N 33°35' W 118°08'0 0.0
2014-Nov-22 12:20N 33°35' W 118°08'0 0.0
2014-Nov-22 11:15N 33°35' W 118°08'12 0.3
2014-Nov-20 22:32N 33°44' W 118°16'1 0.1
2014-Nov-20 12:33N 33°43' W 118°15'10 4.8
2014-Nov-20 10:26N 33°35' W 118°08'0 0.2
2014-Nov-20 09:32N 33°35' W 118°08'0 0.0
2014-Nov-20 08:33N 33°35' W 118°08'0 0.0
2014-Nov-20 07:33N 33°35' W 118°08'0 0.0
2014-Nov-20 06:33N 33°35' W 118°08'2 2.3
2014-Nov-20 05:33N 33°37' W 118°09'9 9.5
2014-Nov-20 04:33N 33°44' W 118°16'0 0.0
2014-Nov-20 03:33N 33°44' W 118°16'0 0.0
2014-Nov-20 02:33N 33°44' W 118°16'0 0.0
2014-Nov-20 01:33N 33°44' W 118°16'12 5.8
2014-Nov-19 23:33N 33°35' W 118°08'0 0.4
2014-Nov-19 22:33N 33°35' W 118°07'0 0.3
2014-Nov-19 21:33N 33°35' W 118°08'0 0.2
2014-Nov-19 20:33N 33°35' W 118°08'0 0.0
2014-Nov-19 19:32N 33°35' W 118°08'0 0.0
2014-Nov-19 18:28N 33°35' W 118°08'0 0.0
2014-Nov-19 17:33N 33°35' W 118°08'0 0.1
2014-Nov-19 16:33N 33°35' W 118°08'1 1.1
2014-Nov-19 15:33N 33°34' W 118°07'1010.3
2014-Nov-19 14:33N 33°42' W 118°15'2 2.2
2014-Nov-19 13:25N 33°44' W 118°16'0 0.0
2014-Nov-19 12:23N 33°44' W 118°16'0 0.0
2014-Nov-19 11:33N 33°44' W 118°16'1 1.4
2014-Nov-19 10:33N 33°43' W 118°15'10 9.8
2014-Nov-19 09:33N 33°35' W 118°08'0 0.4
2014-Nov-19 08:33N 33°35' W 118°08'0 0.2
2014-Nov-19 07:33N 33°35' W 118°08'0 0.1
2014-Nov-19 06:33N 33°35' W 118°08'0 0.2
2014-Nov-19 05:33N 33°35' W 118°08'1 1.2
2014-Nov-19 04:33N 33°34' W 118°07'1 1.2
2014-Nov-19 03:33N 33°35' W 118°08'0 0.0
2014-Nov-19 02:33N 33°35' W 118°08'0 0.0
2014-Nov-19 01:33N 33°35' W 118°08'0 0.0
2014-Nov-19 00:33N 33°35' W 118°08'0 0.0
2014-Nov-18 23:33N 33°35' W 118°08'0 0.0
2014-Nov-18 22:33N 33°35' W 118°08'0 0.0
2014-Nov-18 21:33N 33°35' W 118°08'0 0.2
2014-Nov-18 20:33N 33°35' W 118°08'1 1.3
2014-Nov-18 19:33N 33°34' W 118°07'0 0.0
2014-Nov-18 18:33N 33°34' W 118°07'1 1.2
2014-Nov-18 17:33N 33°35' W 118°08'7 6.9
2014-Nov-18 16:33N 33°40' W 118°13'5 4.7
2014-Nov-18 15:33N 33°44' W 118°16'0 0.0
2014-Nov-18 14:32N 33°44' W 118°16'0 0.0
2014-Nov-18 13:32N 33°44' W 118°16'0 0.0
2014-Nov-18 12:29N 33°44' W 118°16'0 0.0
2014-Nov-18 11:33N 33°44' W 118°16'0 0.0
2014-Nov-18 10:33N 33°44' W 118°16'5 4.7
2014-Nov-18 09:33N 33°40' W 118°13'7 7.0
2014-Nov-18 08:33N 33°35' W 118°08'0 0.0
2014-Nov-18 07:33N 33°35' W 118°08'9 8.5
2014-Nov-18 06:33N 33°42' W 118°14'3 3.1
2014-Nov-18 05:33N 33°44' W 118°16'0 0.0
2014-Nov-18 04:33N 33°44' W 118°16'7 7.2
2014-Nov-18 03:33N 33°38' W 118°11'4 4.4
2014-Nov-18 02:33N 33°35' W 118°08'0 0.2
2014-Nov-18 01:33N 33°35' W 118°08'0 0.2
2014-Nov-18 00:33N 33°35' W 118°08'0 0.0
2014-Nov-17 23:33N 33°35' W 118°08'0 0.0
2014-Nov-17 22:33N 33°35' W 118°08'0 0.0
2014-Nov-17 21:33N 33°35' W 118°08'0 0.0
2014-Nov-17 20:33N 33°35' W 118°08'0 0.0
2014-Nov-17 19:33N 33°35' W 118°08'0 0.0
2014-Nov-17 18:33N 33°35' W 118°08'0 0.5
2014-Nov-17 17:32N 33°35' W 118°08'11 5.2
2014-Nov-17 15:25N 33°44' W 118°16'11 2.3
2014-Nov-17 10:30N 33°35' W 118°08'0 0.1
2014-Nov-17 09:30N 33°35' W 118°08'0 0.0
2014-Nov-17 00:32N 33°35' W 118°08'1 1.3
2014-Nov-16 23:33N 33°34' W 118°07'0 0.0
2014-Nov-16 21:32N 33°34' W 118°07'1 1.3
2014-Nov-16 20:32N 33°35' W 118°08'12 0.4
2014-Nov-15 17:30N 33°44' W 118°16'0 0.0
2014-Nov-15 00:29N 33°44' W 118°16'0 0.0
2014-Nov-14 20:30N 33°44' W 118°16'0 0.0
2014-Nov-14 19:33N 33°44' W 118°16'0 0.0
2014-Nov-13 15:20N 33°44' W 118°16'0 0.0
2014-Nov-13 14:29N 33°44' W 118°16'0 0.0
2014-Nov-13 13:31N 33°44' W 118°16'0 0.0
2014-Nov-13 12:32N 33°44' W 118°16'0 0.0
2014-Nov-13 11:33N 33°44' W 118°16'  
Track history (hours):
 
Tides and Currents Weather Stations Pressure Air Temp Water Temp Dewpoint Dewpoint Depression Visibility Wind Speed Wind Dir Waves Ship Positions

Kenneth Carl

Owner: So. Cal. Ship Services, Inc., San Pedro, CA. More information available from US FCC via Universal Licensing System and Coast Guard Vessel Documentation Center.

Last reported at 2014-Nov-23 05:32 UTC. Time now 2014-Nov-23 05:58 UTC.
Position N 33°35' W 118°08'.

Length 31 m; draft 3 m.

Type: Ship. MMSI: 367492920.

Date/timePositionNaut miles runAvg speedWind from/ knotsBaromVisibWave heightAir tempDewpointWater temp
2014-Nov-23 05:32N 33°35' W 118°08'9 7.5
2014-Nov-23 04:21N 33°42' W 118°14'3 3.2
2014-Nov-23 03:32N 33°44' W 118°16'0 0.0
2014-Nov-23 02:32N 33°44' W 118°16'0 0.0
2014-Nov-23 01:33N 33°44' W 118°16'6 6.5
2014-Nov-23 00:33N 33°39' W 118°11'5 5.1
2014-Nov-22 23:33N 33°35' W 118°08'0 0.1
2014-Nov-22 22:33N 33°35' W 118°08'0 0.0
2014-Nov-22 21:33N 33°35' W 118°08'0 0.1
2014-Nov-22 20:33N 33°35' W 118°08'0 0.0
2014-Nov-22 19:33N 33°35' W 118°08'0 0.0
2014-Nov-22 18:26N 33°35' W 118°08'0 0.0
2014-Nov-22 13:27N 33°35' W 118°08'0 0.0
2014-Nov-22 12:20N 33°35' W 118°08'0 0.0
2014-Nov-22 11:15N 33°35' W 118°08'12 0.3
2014-Nov-20 22:32N 33°44' W 118°16'1 0.1
2014-Nov-20 12:33N 33°43' W 118°15'10 4.8
2014-Nov-20 10:26N 33°35' W 118°08'0 0.2
2014-Nov-20 09:32N 33°35' W 118°08'0 0.0
2014-Nov-20 08:33N 33°35' W 118°08'0 0.0
2014-Nov-20 07:33N 33°35' W 118°08'0 0.0
2014-Nov-20 06:33N 33°35' W 118°08'2 2.3
2014-Nov-20 05:33N 33°37' W 118°09'9 9.5
2014-Nov-20 04:33N 33°44' W 118°16'0 0.0
2014-Nov-20 03:33N 33°44' W 118°16'0 0.0
2014-Nov-20 02:33N 33°44' W 118°16'0 0.0
2014-Nov-20 01:33N 33°44' W 118°16'12 5.8
2014-Nov-19 23:33N 33°35' W 118°08'0 0.4
2014-Nov-19 22:33N 33°35' W 118°07'0 0.3
2014-Nov-19 21:33N 33°35' W 118°08'0 0.2
2014-Nov-19 20:33N 33°35' W 118°08'0 0.0
2014-Nov-19 19:32N 33°35' W 118°08'0 0.0
2014-Nov-19 18:28N 33°35' W 118°08'0 0.0
2014-Nov-19 17:33N 33°35' W 118°08'0 0.1
2014-Nov-19 16:33N 33°35' W 118°08'1 1.1
2014-Nov-19 15:33N 33°34' W 118°07'1010.3
2014-Nov-19 14:33N 33°42' W 118°15'2 2.2
2014-Nov-19 13:25N 33°44' W 118°16'0 0.0
2014-Nov-19 12:23N 33°44' W 118°16'0 0.0
2014-Nov-19 11:33N 33°44' W 118°16'1 1.4
2014-Nov-19 10:33N 33°43' W 118°15'10 9.8
2014-Nov-19 09:33N 33°35' W 118°08'0 0.4
2014-Nov-19 08:33N 33°35' W 118°08'0 0.2
2014-Nov-19 07:33N 33°35' W 118°08'0 0.1
2014-Nov-19 06:33N 33°35' W 118°08'0 0.2
2014-Nov-19 05:33N 33°35' W 118°08'1 1.2
2014-Nov-19 04:33N 33°34' W 118°07'1 1.2
2014-Nov-19 03:33N 33°35' W 118°08'0 0.0
2014-Nov-19 02:33N 33°35' W 118°08'0 0.0
2014-Nov-19 01:33N 33°35' W 118°08'0 0.0
2014-Nov-19 00:33N 33°35' W 118°08'0 0.0
2014-Nov-18 23:33N 33°35' W 118°08'0 0.0
2014-Nov-18 22:33N 33°35' W 118°08'0 0.0
2014-Nov-18 21:33N 33°35' W 118°08'0 0.2
2014-Nov-18 20:33N 33°35' W 118°08'1 1.3
2014-Nov-18 19:33N 33°34' W 118°07'0 0.0
2014-Nov-18 18:33N 33°34' W 118°07'1 1.2
2014-Nov-18 17:33N 33°35' W 118°08'7 6.9
2014-Nov-18 16:33N 33°40' W 118°13'5 4.7
2014-Nov-18 15:33N 33°44' W 118°16'0 0.0
2014-Nov-18 14:32N 33°44' W 118°16'0 0.0
2014-Nov-18 13:32N 33°44' W 118°16'0 0.0
2014-Nov-18 12:29N 33°44' W 118°16'0 0.0
2014-Nov-18 11:33N 33°44' W 118°16'0 0.0
2014-Nov-18 10:33N 33°44' W 118°16'5 4.7
2014-Nov-18 09:33N 33°40' W 118°13'7 7.0
2014-Nov-18 08:33N 33°35' W 118°08'0 0.0
2014-Nov-18 07:33N 33°35' W 118°08'9 8.5
2014-Nov-18 06:33N 33°42' W 118°14'3 3.1
2014-Nov-18 05:33N 33°44' W 118°16'0 0.0
2014-Nov-18 04:33N 33°44' W 118°16'7 7.2
2014-Nov-18 03:33N 33°38' W 118°11'4 4.4
2014-Nov-18 02:33N 33°35' W 118°08'0 0.2
2014-Nov-18 01:33N 33°35' W 118°08'0 0.2
2014-Nov-18 00:33N 33°35' W 118°08'0 0.0
2014-Nov-17 23:33N 33°35' W 118°08'0 0.0
2014-Nov-17 22:33N 33°35' W 118°08'0 0.0
2014-Nov-17 21:33N 33°35' W 118°08'0 0.0
2014-Nov-17 20:33N 33°35' W 118°08'0 0.0
2014-Nov-17 19:33N 33°35' W 118°08'0 0.0
2014-Nov-17 18:33N 33°35' W 118°08'0 0.5
2014-Nov-17 17:32N 33°35' W 118°08'11 5.2
2014-Nov-17 15:25N 33°44' W 118°16'11 2.3
2014-Nov-17 10:30N 33°35' W 118°08'0 0.1
2014-Nov-17 09:30N 33°35' W 118°08'0 0.0
2014-Nov-17 00:32N 33°35' W 118°08'1 1.3
2014-Nov-16 23:33N 33°34' W 118°07'0 0.0
2014-Nov-16 21:32N 33°34' W 118°07'1 1.3
2014-Nov-16 20:32N 33°35' W 118°08'12 0.4
2014-Nov-15 17:30N 33°44' W 118°16'0 0.0
2014-Nov-15 00:29N 33°44' W 118°16'0 0.0
2014-Nov-14 20:30N 33°44' W 118°16'0 0.0
2014-Nov-14 19:33N 33°44' W 118°16'0 0.0
2014-Nov-13 15:20N 33°44' W 118°16'0 0.0
2014-Nov-13 14:29N 33°44' W 118°16'0 0.0
2014-Nov-13 13:31N 33°44' W 118°16'0 0.0
2014-Nov-13 12:32N 33°44' W 118°16'0 0.0
2014-Nov-13 11:33N 33°44' W 118°16'  

Dump ship's entire track history